Back to catalog

ECHOSTAR 17

AliveCommunicationsGEO
NORAD 38551·PAYLOAD·🇺🇸 United States

Launched Jul 5, 2012 from Guiana Space Centre

Loading…

TLE

FreshSource: Space-Track

Epoch: Sep 14, 2026, 12:29 UTC

1 38551U 12035A   26257.52058617 -.00000083  00000-0  00000-0 0  9991
2 38551   0.0196 141.9240 0002122  28.3745 263.5108  1.00271952 51959

Track ECHOSTAR 17 in real time with AllMySat

Download on the App Store